Time,TemperatureF,DewpointF,PressureIn,WindDirection,WindDirectionDegrees,WindSpeedMPH,WindSpeedGustMPH,Humidity,HourlyPrecipIn,Conditions,Clouds,dailyrainin,SoftwareType,DateUTC
2013-03-20 00:00:00,44.5,5.9,29.96,WSW,257,7.0,7.0,20,0.00,,---,0.00,VWS V14.01,2013-03-20 04:00:00,
2013-03-20 00:05:00,44.6,4.9,29.97,West,267,3.0,14.0,19,0.00,,---,0.00,VWS V14.01,2013-03-20 04:05:00,
2013-03-20 00:10:00,44.4,5.9,29.96,West,260,3.0,3.0,20,0.00,,---,0.00,VWS V14.01,2013-03-20 04:10:00,
2013-03-20 00:15:00,44.2,3.4,29.96,WNW,288,2.0,5.0,18,0.00,,---,0.00,VWS V14.01,2013-03-20 04:15:00,
2013-03-20 00:20:00,43.9,3.2,29.96,WNW,288,5.0,7.0,18,0.00,,---,0.00,VWS V14.01,2013-03-20 04:20:00,
2013-03-20 00:25:00,43.9,4.3,29.96,WNW,283,1.0,7.0,19,0.00,,---,0.00,VWS V14.01,2013-03-20 04:25:00,
2013-03-20 00:30:00,43.4,3.9,29.96,WNW,297,1.0,4.0,19,0.00,,---,0.00,VWS V14.01,2013-03-20 04:30:00,
2013-03-20 00:35:00,43.1,4.8,29.96,WNW,288,3.0,7.0,20,0.00,,---,0.00,VWS V14.01,2013-03-20 04:35:00,
2013-03-20 00:40:00,43.1,4.8,29.96,WNW,287,2.0,7.0,20,0.00,,---,0.00,VWS V14.01,2013-03-20 04:40:00,
2013-03-20 00:45:00,43.0,5.8,29.96,WSW,255,4.0,7.0,21,0.00,,---,0.00,VWS V14.01,2013-03-20 04:45:00,
2013-03-20 00:50:00,43.3,6.0,29.97,West,277,7.0,13.0,21,0.00,,---,0.00,VWS V14.01,2013-03-20 04:50:00,
2013-03-20 00:55:00,43.4,5.0,29.97,NNE,20,5.0,17.0,20,0.00,,---,0.00,VWS V14.01,2013-03-20 04:55:00,
2013-03-20 01:00:00,43.6,5.2,29.97,West,273,9.0,17.0,20,0.00,,---,0.00,VWS V14.01,2013-03-20 05:00:00,
2013-03-20 01:01:00,43.6,4.1,29.97,WSW,257,13.0,13.0,19,0.00,,---,0.00,VWS V14.01,2013-03-20 05:01:00,
2013-03-20 01:06:00,43.7,5.3,29.97,West,270,5.0,13.0,20,0.00,,---,0.00,VWS V14.01,2013-03-20 05:06:00,
2013-03-20 01:10:00,43.6,4.1,29.97,West,278,7.0,13.0,19,0.00,,---,0.00,VWS V14.01,2013-03-20 05:10:00,
2013-03-20 01:11:00,43.6,4.1,29.97,West,262,8.0,9.0,19,0.00,,---,0.00,VWS V14.01,2013-03-20 05:11:00,
2013-03-20 01:16:00,43.7,4.2,29.97,West,278,5.0,15.0,19,0.00,,---,0.00,VWS V14.01,2013-03-20 05:16:00,
2013-03-20 01:20:00,43.6,4.1,29.97,NNW,335,3.0,15.0,19,0.00,,---,0.00,VWS V14.01,2013-03-20 05:20:00,
2013-03-20 01:21:00,43.6,5.2,29.98,WNW,295,5.0,7.0,20,0.00,,---,0.00,VWS V14.01,2013-03-20 05:21:00,
2013-03-20 01:26:00,43.3,4.9,29.98,West,277,7.0,15.0,20,0.00,,---,0.00,VWS V14.01,2013-03-20 05:26:00,
2013-03-20 01:30:00,43.3,4.9,29.98,West,259,3.0,15.0,20,0.00,,---,0.00,VWS V14.01,2013-03-20 05:30:00,
2013-03-20 01:31:00,43.2,4.8,29.98,West,264,4.0,4.0,20,0.00,,---,0.00,VWS V14.01,2013-03-20 05:31:00,
2013-03-20 01:37:00,43.0,4.7,29.98,SW,219,6.0,11.0,20,0.00,,---,0.00,VWS V14.01,2013-03-20 05:37:00,
2013-03-20 01:40:00,42.9,5.7,29.98,WNW,289,6.0,11.0,21,0.00,,---,0.00,VWS V14.01,2013-03-20 05:40:00,
2013-03-20 01:42:00,42.9,5.7,29.98,WNW,293,3.0,8.0,21,0.00,,---,0.00,VWS V14.01,2013-03-20 05:42:00,
2013-03-20 01:47:00,42.7,5.5,29.98,WNW,294,3.0,8.0,21,0.00,,---,0.00,VWS V14.01,2013-03-20 05:47:00,
2013-03-20 01:50:00,42.5,4.3,29.98,West,267,5.0,9.0,20,0.00,,---,0.00,VWS V14.01,2013-03-20 05:50:00,
2013-03-20 01:52:00,42.4,5.2,29.98,WNW,290,4.0,9.0,21,0.00,,---,0.00,VWS V14.01,2013-03-20 05:52:00,
2013-03-20 01:57:00,42.3,5.2,29.98,WNW,299,2.0,9.0,21,0.00,,---,0.00,VWS V14.01,2013-03-20 05:57:00,
2013-03-20 02:00:00,42.2,6.1,29.99,WNW,288,3.0,9.0,22,0.00,,---,0.00,VWS V14.01,2013-03-20 06:00:00,
2013-03-20 02:02:00,42.1,5.0,29.99,West,281,3.0,5.0,21,0.00,,---,0.00,VWS V14.01,2013-03-20 06:02:00,
2013-03-20 02:07:00,41.7,6.7,29.99,West,281,1.0,8.0,23,0.00,,---,0.00,VWS V14.01,2013-03-20 06:07:00,
2013-03-20 02:10:00,41.5,6.5,29.99,West,273,1.0,8.0,23,0.00,,---,0.00,VWS V14.01,2013-03-20 06:10:00,
2013-03-20 02:12:00,41.3,6.3,29.99,WNW,285,3.0,4.0,23,0.00,,---,0.00,VWS V14.01,2013-03-20 06:12:00,
2013-03-20 02:17:00,40.7,6.7,29.99,West,274,1.0,4.0,24,0.00,,---,0.00,VWS V14.01,2013-03-20 06:17:00,
2013-03-20 02:20:00,40.5,6.6,29.99,West,281,4.0,8.0,24,0.00,,---,0.00,VWS V14.01,2013-03-20 06:20:00,
2013-03-20 02:22:00,40.6,6.7,29.99,West,269,3.0,6.0,24,0.00,,---,0.00,VWS V14.01,2013-03-20 06:22:00,
2013-03-20 02:27:00,40.4,7.4,29.99,West,269,3.0,6.0,25,0.00,,---,0.00,VWS V14.01,2013-03-20 06:27:00,
2013-03-20 02:30:00,40.3,7.3,29.99,WSW,254,4.0,6.0,25,0.00,,---,0.00,VWS V14.01,2013-03-20 06:30:00,
2013-03-20 02:32:00,40.4,8.2,29.99,West,281,2.0,7.0,26,0.00,,---,0.00,VWS V14.01,2013-03-20 06:32:00,
2013-03-20 02:37:00,40.0,7.9,29.99,West,274,1.0,7.0,26,0.00,,---,0.00,VWS V14.01,2013-03-20 06:37:00,
2013-03-20 02:40:00,39.9,7.8,29.99,WNW,283,2.0,7.0,26,0.00,,---,0.00,VWS V14.01,2013-03-20 06:40:00,
2013-03-20 02:42:00,39.7,7.6,29.99,WNW,290,1.0,3.0,26,0.00,,---,0.00,VWS V14.01,2013-03-20 06:42:00,
2013-03-20 02:47:00,39.4,8.2,29.99,West,270,2.0,3.0,27,0.00,,---,0.00,VWS V14.01,2013-03-20 06:47:00,
2013-03-20 02:50:00,39.3,8.1,29.99,West,271,0.0,3.0,27,0.00,,---,0.00,VWS V14.01,2013-03-20 06:50:00,
2013-03-20 02:52:00,39.1,7.9,29.99,West,274,2.0,3.0,27,0.00,,---,0.00,VWS V14.01,2013-03-20 06:52:00,
2013-03-20 02:57:00,38.8,9.3,29.99,West,264,1.0,4.0,29,0.00,,---,0.00,VWS V14.01,2013-03-20 06:57:00,
2013-03-20 03:00:00,38.6,9.9,29.99,WSW,257,0.0,4.0,30,0.00,,---,0.00,VWS V14.01,2013-03-20 07:00:00,
2013-03-20 03:02:00,38.4,8.9,29.99,West,263,3.0,3.0,29,0.00,,---,0.00,VWS V14.01,2013-03-20 07:02:00,
2013-03-20 03:07:00,38.5,9.0,29.98,West,271,3.0,7.0,29,0.00,,---,0.00,VWS V14.01,2013-03-20 07:07:00,
2013-03-20 03:10:00,38.7,8.4,29.98,West,269,3.0,7.0,28,0.00,,---,0.00,VWS V14.01,2013-03-20 07:10:00,
2013-03-20 03:13:00,38.9,8.6,29.98,WNW,285,2.0,3.0,28,0.00,,---,0.00,VWS V14.01,2013-03-20 07:13:00,
2013-03-20 03:17:00,38.8,9.3,29.98,West,269,2.0,4.0,29,0.00,,---,0.00,VWS V14.01,2013-03-20 07:17:00,
2013-03-20 03:20:00,38.7,9.2,29.98,WNW,285,1.0,4.0,29,0.00,,---,0.00,VWS V14.01,2013-03-20 07:20:00,
2013-03-20 03:22:00,38.6,9.1,29.98,West,281,3.0,4.0,29,0.00,,---,0.00,VWS V14.01,2013-03-20 07:22:00,
2013-03-20 03:28:00,38.4,9.7,29.98,WSW,250,2.0,4.0,30,0.00,,---,0.00,VWS V14.01,2013-03-20 07:28:00,
2013-03-20 03:30:00,38.3,9.6,29.98,WNW,285,2.0,4.0,30,0.00,,---,0.00,VWS V14.01,2013-03-20 07:30:00,
2013-03-20 03:33:00,38.2,9.5,29.98,West,276,1.0,3.0,30,0.00,,---,0.00,VWS V14.01,2013-03-20 07:33:00,
2013-03-20 03:38:00,37.8,9.9,29.98,West,269,0.0,3.0,31,0.00,,---,0.00,VWS V14.01,2013-03-20 07:38:00,
2013-03-20 03:40:00,37.7,9.8,29.98,West,264,3.0,4.0,31,0.00,,---,0.00,VWS V14.01,2013-03-20 07:40:00,
2013-03-20 03:43:00,37.6,10.4,29.98,West,273,2.0,3.0,32,0.00,,---,0.00,VWS V14.01,2013-03-20 07:43:00,
2013-03-20 03:48:00,37.3,10.2,29.98,WSW,255,2.0,5.0,32,0.00,,---,0.00,VWS V14.01,2013-03-20 07:48:00,
2013-03-20 03:50:00,37.2,10.1,29.98,WNW,283,5.0,6.0,32,0.00,,---,0.00,VWS V14.01,2013-03-20 07:50:00,
2013-03-20 03:53:00,37.3,10.2,29.98,West,276,3.0,5.0,32,0.00,,---,0.00,VWS V14.01,2013-03-20 07:53:00,
2013-03-20 03:58:00,37.5,9.6,29.98,WNW,283,4.0,5.0,31,0.00,,---,0.00,VWS V14.01,2013-03-20 07:58:00,
2013-03-20 04:00:00,37.7,9.1,29.98,WSW,254,3.0,7.0,30,0.00,,---,0.00,VWS V14.01,2013-03-20 08:00:00,
2013-03-20 04:03:00,37.7,9.8,29.98,West,266,2.0,4.0,31,0.00,,---,0.00,VWS V14.01,2013-03-20 08:03:00,
2013-03-20 04:08:00,38.2,8.0,29.98,West,264,3.0,11.0,28,0.00,,---,0.00,VWS V14.01,2013-03-20 08:08:00,
2013-03-20 04:10:00,38.3,8.8,29.97,WNW,283,3.0,11.0,29,0.00,,---,0.00,VWS V14.01,2013-03-20 08:10:00,
2013-03-20 04:13:00,38.3,9.6,29.98,West,277,3.0,6.0,30,0.00,,---,0.00,VWS V14.01,2013-03-20 08:13:00,
2013-03-20 04:18:00,38.3,8.1,29.97,West,276,2.0,6.0,28,0.00,,---,0.00,VWS V14.01,2013-03-20 08:18:00,
2013-03-20 04:20:00,38.3,8.8,29.98,West,259,2.0,6.0,29,0.00,,---,0.00,VWS V14.01,2013-03-20 08:20:00,
2013-03-20 04:23:00,38.1,9.4,29.97,WNW,284,1.0,4.0,30,0.00,,---,0.00,VWS V14.01,2013-03-20 08:23:00,
2013-03-20 04:28:00,37.5,8.9,29.98,NW,323,0.0,4.0,30,0.00,,---,0.00,VWS V14.01,2013-03-20 08:28:00,
2013-03-20 04:30:00,37.4,8.8,29.98,West,281,2.0,4.0,30,0.00,,---,0.00,VWS V14.01,2013-03-20 08:30:00,
2013-03-20 04:33:00,37.2,9.4,29.98,West,262,0.0,2.0,31,0.00,,---,0.00,VWS V14.01,2013-03-20 08:33:00,
2013-03-20 04:38:00,36.8,9.7,29.98,WNW,283,0.0,2.0,32,0.00,,---,0.00,VWS V14.01,2013-03-20 08:38:00,
2013-03-20 04:40:00,36.5,10.8,29.98,NW,315,0.0,2.0,34,0.00,,---,0.00,VWS V14.01,2013-03-20 08:40:00,
2013-03-20 04:43:00,36.2,11.2,29.98,WNW,285,0.0,1.0,35,0.00,,---,0.00,VWS V14.01,2013-03-20 08:43:00,
2013-03-20 04:48:00,35.4,11.1,29.98,West,278,0.0,1.0,36,0.00,,---,0.00,VWS V14.01,2013-03-20 08:48:00,
2013-03-20 04:50:00,35.2,10.9,29.98,West,278,0.0,1.0,36,0.00,,---,0.00,VWS V14.01,2013-03-20 08:50:00,
2013-03-20 04:53:00,34.6,11.6,29.98,West,264,1.0,2.0,38,0.00,,---,0.00,VWS V14.01,2013-03-20 08:53:00,
2013-03-20 04:58:00,34.4,12.0,29.98,West,260,0.0,2.0,39,0.00,,---,0.00,VWS V14.01,2013-03-20 08:58:00,
2013-03-20 05:00:00,34.3,13.1,29.98,West,264,0.0,2.0,41,0.00,,---,0.00,VWS V14.01,2013-03-20 09:00:00,
2013-03-20 05:03:00,34.1,11.8,29.98,WNW,284,0.0,1.0,39,0.00,,---,0.00,VWS V14.01,2013-03-20 09:03:00,
2013-03-20 05:08:00,33.9,11.0,29.98,SW,225,0.0,1.0,38,0.00,,---,0.00,VWS V14.01,2013-03-20 09:08:00,
2013-03-20 05:10:00,33.8,11.5,29.98,SW,225,0.0,1.0,39,0.00,,---,0.00,VWS V14.01,2013-03-20 09:10:00,
2013-03-20 05:13:00,33.6,14.0,29.98,West,273,0.0,0.0,44,0.00,,---,0.00,VWS V14.01,2013-03-20 09:13:00,
2013-03-20 05:18:00,33.0,13.0,29.98,West,274,0.0,1.0,43,0.00,,---,0.00,VWS V14.01,2013-03-20 09:18:00,
2013-03-20 05:20:00,33.0,13.0,29.98,West,274,0.0,1.0,43,0.00,,---,0.00,VWS V14.01,2013-03-20 09:20:00,
2013-03-20 05:23:00,33.0,12.4,29.99,West,278,0.0,2.0,42,0.00,,---,0.00,VWS V14.01,2013-03-20 09:23:00,
2013-03-20 05:28:00,33.0,12.4,29.99,West,281,0.0,2.0,42,0.00,,---,0.00,VWS V14.01,2013-03-20 09:28:00,
2013-03-20 05:30:00,33.0,11.9,29.99,West,269,0.0,2.0,41,0.00,,---,0.00,VWS V14.01,2013-03-20 09:30:00,
2013-03-20 05:33:00,32.9,12.3,29.99,West,262,0.0,1.0,42,0.00,,---,0.00,VWS V14.01,2013-03-20 09:33:00,
2013-03-20 05:38:00,32.5,13.0,29.99,West,263,0.0,1.0,44,0.00,,---,0.00,VWS V14.01,2013-03-20 09:38:00,
2013-03-20 05:40:00,32.4,12.4,29.99,West,281,0.0,1.0,43,0.00,,---,0.00,VWS V14.01,2013-03-20 09:40:00,
2013-03-20 05:43:00,32.4,11.9,29.99,WSW,253,0.0,2.0,42,0.00,,---,0.00,VWS V14.01,2013-03-20 09:43:00,
2013-03-20 05:48:00,32.8,11.7,29.99,WSW,242,0.0,2.0,41,0.00,,---,0.00,VWS V14.01,2013-03-20 09:48:00,
2013-03-20 05:50:00,32.9,11.8,29.99,WNW,284,1.0,2.0,41,0.00,,---,0.00,VWS V14.01,2013-03-20 09:50:00,
2013-03-20 05:53:00,33.0,11.9,29.99,WSW,257,0.0,1.0,41,0.00,,---,0.00,VWS V14.01,2013-03-20 09:53:00,
2013-03-20 05:58:00,33.2,11.5,29.99,WSW,257,0.0,1.0,40,0.00,,---,0.00,VWS V14.01,2013-03-20 09:58:00,
2013-03-20 06:00:00,33.2,11.5,29.99,WSW,257,0.0,1.0,40,0.00,,---,0.00,VWS V14.01,2013-03-20 10:00:00,
2013-03-20 06:03:00,33.0,11.9,29.99,WSW,257,0.0,0.0,41,0.00,,---,0.00,VWS V14.01,2013-03-20 10:03:00,
2013-03-20 06:08:00,32.3,13.9,29.99,WSW,257,0.0,1.0,46,0.00,,---,0.00,VWS V14.01,2013-03-20 10:08:00,
2013-03-20 06:10:00,32.2,14.2,29.99,WSW,257,0.0,1.0,47,0.00,,---,0.00,VWS V14.01,2013-03-20 10:10:00,
2013-03-20 06:13:00,31.9,11.4,29.99,NNW,330,0.0,1.0,42,0.00,,---,0.00,VWS V14.01,2013-03-20 10:13:00,
2013-03-20 06:18:00,32.0,12.6,29.99,WSW,252,0.0,1.0,44,0.00,,---,0.00,VWS V14.01,2013-03-20 10:18:00,
2013-03-20 06:20:00,32.0,11.5,29.99,North,352,1.0,1.0,42,0.00,,---,0.00,VWS V14.01,2013-03-20 10:20:00,
2013-03-20 06:23:00,32.0,12.6,30.00,North,359,1.0,1.0,44,0.00,,---,0.00,VWS V14.01,2013-03-20 10:23:00,
2013-03-20 06:28:00,32.2,10.0,29.99,NNW,330,0.0,1.0,39,0.00,,---,0.00,VWS V14.01,2013-03-20 10:28:00,
2013-03-20 06:30:00,32.3,10.1,30.00,NNW,330,1.0,1.0,39,0.00,,---,0.00,VWS V14.01,2013-03-20 10:30:00,
2013-03-20 06:33:00,32.6,12.1,30.00,NW,326,0.0,1.0,42,0.00,,---,0.00,VWS V14.01,2013-03-20 10:33:00,
2013-03-20 06:38:00,32.0,13.1,30.00,NNW,328,0.0,1.0,45,0.00,,---,0.00,VWS V14.01,2013-03-20 10:38:00,
2013-03-20 06:40:00,31.8,11.9,30.00,NNW,328,0.0,1.0,43,0.00,,---,0.00,VWS V14.01,2013-03-20 10:40:00,
2013-03-20 06:43:00,31.5,11.1,30.00,WSW,249,0.0,2.0,42,0.00,,---,0.00,VWS V14.01,2013-03-20 10:43:00,
2013-03-20 06:48:00,31.6,12.2,30.00,WSW,239,0.0,3.0,44,0.00,,---,0.00,VWS V14.01,2013-03-20 10:48:00,
2013-03-20 06:50:00,31.6,12.7,30.00,SW,229,1.0,3.0,45,0.00,,---,0.00,VWS V14.01,2013-03-20 10:50:00,
2013-03-20 06:53:00,31.7,11.8,30.00,SSW,210,0.0,2.0,43,0.00,,---,0.00,VWS V14.01,2013-03-20 10:53:00,
2013-03-20 06:58:00,31.8,12.9,30.00,WNW,283,0.0,3.0,45,0.00,,---,0.00,VWS V14.01,2013-03-20 10:58:00,
2013-03-20 07:00:00,31.8,12.9,30.00,WNW,284,0.0,3.0,45,0.00,,---,0.00,VWS V14.01,2013-03-20 11:00:00,
2013-03-20 07:03:00,31.9,12.5,30.00,NNW,342,0.0,1.0,44,0.00,,---,0.00,VWS V14.01,2013-03-20 11:03:00,
2013-03-20 07:08:00,31.7,12.3,30.00,NNE,15,0.0,1.0,44,0.00,,---,0.00,VWS V14.01,2013-03-20 11:08:00,
2013-03-20 07:10:00,31.6,12.7,30.00,NNE,16,0.0,1.0,45,0.00,,---,0.00,VWS V14.01,2013-03-20 11:10:00,
2013-03-20 07:13:00,31.6,11.7,30.00,North,359,0.0,1.0,43,0.00,,---,0.00,VWS V14.01,2013-03-20 11:13:00,
2013-03-20 07:18:00,31.9,11.4,30.00,WNW,285,0.0,2.0,42,0.00,,---,0.00,VWS V14.01,2013-03-20 11:18:00,
2013-03-20 07:20:00,32.0,11.5,30.00,NNW,337,0.0,2.0,42,0.00,,---,0.00,VWS V14.01,2013-03-20 11:20:00,
2013-03-20 07:23:00,32.2,10.6,30.00,North,4,0.0,1.0,40,0.00,,---,0.00,VWS V14.01,2013-03-20 11:23:00,
2013-03-20 07:28:00,32.5,10.9,30.00,North,360,0.0,1.0,40,0.00,,---,0.00,VWS V14.01,2013-03-20 11:28:00,
2013-03-20 07:30:00,32.5,10.3,30.00,North,360,0.0,1.0,39,0.00,,---,0.00,VWS V14.01,2013-03-20 11:30:00,
2013-03-20 07:33:00,32.7,9.9,30.00,North,360,0.0,1.0,38,0.00,,---,0.00,VWS V14.01,2013-03-20 11:33:00,
2013-03-20 07:38:00,33.1,10.9,30.00,North,358,0.0,1.0,39,0.00,,---,0.00,VWS V14.01,2013-03-20 11:38:00,
2013-03-20 07:40:00,33.2,10.4,30.00,North,358,0.0,1.0,38,0.00,,---,0.00,VWS V14.01,2013-03-20 11:40:00,
2013-03-20 07:43:00,33.3,14.3,30.00,North,359,0.0,0.0,45,0.00,,---,0.00,VWS V14.01,2013-03-20 11:43:00,
2013-03-20 07:48:00,33.3,11.6,30.00,North,359,0.0,0.0,40,0.00,,---,0.00,VWS V14.01,2013-03-20 11:48:00,
2013-03-20 07:50:00,33.5,11.8,30.00,North,358,0.0,0.0,40,0.00,,---,0.00,VWS V14.01,2013-03-20 11:50:00,
2013-03-20 07:53:00,33.2,15.6,30.00,North,359,0.0,0.0,48,0.00,,---,0.00,VWS V14.01,2013-03-20 11:53:00,
2013-03-20 07:58:00,32.8,14.3,30.01,West,278,0.0,1.0,46,0.00,,---,0.00,VWS V14.01,2013-03-20 11:58:00,
2013-03-20 08:00:00,32.8,13.3,30.01,West,278,0.0,1.0,44,0.00,,---,0.00,VWS V14.01,2013-03-20 12:00:00,
2013-03-20 08:03:00,33.0,14.5,30.01,West,277,0.0,1.0,46,0.00,,---,0.00,VWS V14.01,2013-03-20 12:03:00,
2013-03-20 08:08:00,33.6,15.0,30.01,West,271,0.0,2.0,46,0.00,,---,0.00,VWS V14.01,2013-03-20 12:08:00,
2013-03-20 08:10:00,33.7,14.6,30.01,West,273,1.0,2.0,45,0.00,,---,0.00,VWS V14.01,2013-03-20 12:10:00,
2013-03-20 08:13:00,34.3,15.2,30.01,West,260,1.0,3.0,45,0.00,,---,0.00,VWS V14.01,2013-03-20 12:13:00,
2013-03-20 08:18:00,35.3,15.6,30.01,West,270,3.0,3.0,44,0.00,,---,0.00,VWS V14.01,2013-03-20 12:18:00,
2013-03-20 08:20:00,35.5,15.2,30.01,West,267,2.0,3.0,43,0.00,,---,0.00,VWS V14.01,2013-03-20 12:20:00,
2013-03-20 08:23:00,36.4,15.0,30.01,WSW,255,3.0,5.0,41,0.00,,---,0.00,VWS V14.01,2013-03-20 12:23:00,
2013-03-20 08:28:00,37.3,12.8,30.01,WSW,257,6.0,9.0,36,0.00,,---,0.00,VWS V14.01,2013-03-20 12:28:00,
2013-03-20 08:30:00,37.5,12.4,30.01,West,273,7.0,9.0,35,0.00,,---,0.00,VWS V14.01,2013-03-20 12:30:00,
2013-03-20 08:33:00,38.0,13.4,30.01,WNW,283,6.0,10.0,36,0.00,,---,0.00,VWS V14.01,2013-03-20 12:33:00,
2013-03-20 08:38:00,38.4,12.5,30.01,WSW,257,8.0,10.0,34,0.00,,---,0.00,VWS V14.01,2013-03-20 12:38:00,
2013-03-20 08:40:00,38.5,13.2,30.01,West,278,5.0,10.0,35,0.00,,---,0.00,VWS V14.01,2013-03-20 12:40:00,
2013-03-20 08:44:00,38.6,13.3,30.01,West,267,5.0,11.0,35,0.00,,---,0.00,VWS V14.01,2013-03-20 12:44:00,
2013-03-20 08:49:00,38.8,12.9,30.01,WNW,287,9.0,13.0,34,0.00,,---,0.00,VWS V14.01,2013-03-20 12:49:00,
2013-03-20 08:50:00,38.8,12.9,30.01,West,281,7.0,13.0,34,0.00,,---,0.00,VWS V14.01,2013-03-20 12:50:00,
2013-03-20 08:54:00,39.0,13.0,30.01,West,259,7.0,12.0,34,0.00,,---,0.00,VWS V14.01,2013-03-20 12:54:00,
2013-03-20 08:59:00,39.3,13.9,30.01,WNW,285,6.0,14.0,35,0.00,,---,0.00,VWS V14.01,2013-03-20 12:59:00,
2013-03-20 09:00:00,39.4,14.0,30.01,West,278,8.0,14.0,35,0.00,,---,0.00,VWS V14.01,2013-03-20 13:00:00,
2013-03-20 09:04:00,39.7,13.0,30.01,WNW,289,7.0,13.0,33,0.00,,---,0.00,VWS V14.01,2013-03-20 13:04:00,
2013-03-20 09:09:00,40.1,14.7,30.00,West,259,9.0,14.0,35,0.00,,---,0.00,VWS V14.01,2013-03-20 13:09:00,
2013-03-20 09:10:00,40.1,14.7,30.00,WNW,289,6.0,14.0,35,0.00,,---,0.00,VWS V14.01,2013-03-20 13:10:00,
2013-03-20 09:14:00,40.4,13.6,30.00,West,270,7.0,14.0,33,0.00,,---,0.00,VWS V14.01,2013-03-20 13:14:00,
2013-03-20 09:19:00,40.8,13.9,30.00,West,280,7.0,14.0,33,0.00,,---,0.00,VWS V14.01,2013-03-20 13:19:00,
2013-03-20 09:20:00,40.8,13.2,30.00,West,266,13.0,14.0,32,0.00,,---,0.00,VWS V14.01,2013-03-20 13:20:00,
2013-03-20 09:24:00,41.2,14.3,30.00,WNW,288,8.0,15.0,33,0.00,,---,0.00,VWS V14.01,2013-03-20 13:24:00,
2013-03-20 09:29:00,41.4,13.8,30.00,WNW,292,4.0,15.0,32,0.00,,---,0.00,VWS V14.01,2013-03-20 13:29:00,
2013-03-20 09:30:00,41.5,14.6,30.00,NW,313,7.0,15.0,33,0.00,,---,0.00,VWS V14.01,2013-03-20 13:30:00,
2013-03-20 09:34:00,41.7,14.0,30.00,WNW,295,14.0,14.0,32,0.00,,---,0.00,VWS V14.01,2013-03-20 13:34:00,
2013-03-20 09:39:00,41.9,12.7,30.00,West,272,7.0,14.0,30,0.00,,---,0.00,VWS V14.01,2013-03-20 13:39:00,
2013-03-20 09:40:00,41.9,13.5,30.00,West,259,12.0,14.0,31,0.00,,---,0.00,VWS V14.01,2013-03-20 13:40:00,
2013-03-20 09:44:00,42.0,12.8,30.00,WNW,285,8.0,15.0,30,0.00,,---,0.00,VWS V14.01,2013-03-20 13:44:00,
2013-03-20 09:49:00,42.2,13.0,30.00,NW,311,8.0,18.0,30,0.00,,---,0.00,VWS V14.01,2013-03-20 13:49:00,
2013-03-20 09:50:00,42.2,13.0,30.00,WNW,284,3.0,18.0,30,0.00,,---,0.00,VWS V14.01,2013-03-20 13:50:00,
2013-03-20 09:54:00,42.4,13.2,30.00,West,274,10.0,17.0,30,0.00,,---,0.00,VWS V14.01,2013-03-20 13:54:00,
2013-03-20 09:59:00,42.6,14.1,30.00,WSW,246,14.0,17.0,31,0.00,,---,0.00,VWS V14.01,2013-03-20 13:59:00,
2013-03-20 10:00:00,42.7,14.2,30.00,West,281,12.0,17.0,31,0.00,,---,0.00,VWS V14.01,2013-03-20 14:00:00,
2013-03-20 10:04:00,42.9,12.9,30.00,West,276,16.0,16.0,29,0.00,,---,0.00,VWS V14.01,2013-03-20 14:04:00,
2013-03-20 10:09:00,42.9,12.9,30.01,WNW,287,9.0,18.0,29,0.00,,---,0.00,VWS V14.01,2013-03-20 14:09:00,
2013-03-20 10:10:00,42.9,12.9,30.00,West,267,10.0,18.0,29,0.00,,---,0.00,VWS V14.01,2013-03-20 14:10:00,
2013-03-20 10:14:00,42.9,12.9,30.00,NW,304,4.0,15.0,29,0.00,,---,0.00,VWS V14.01,2013-03-20 14:14:00,
2013-03-20 10:19:00,43.1,12.2,30.00,NW,305,4.0,20.0,28,0.00,,---,0.00,VWS V14.01,2013-03-20 14:19:00,
2013-03-20 10:20:00,43.1,13.0,30.00,NE,36,5.0,20.0,29,0.00,,---,0.00,VWS V14.01,2013-03-20 14:20:00,
2013-03-20 10:24:00,43.5,13.4,30.00,West,280,3.0,16.0,29,0.00,,---,0.00,VWS V14.01,2013-03-20 14:24:00,
2013-03-20 10:29:00,44.1,15.4,30.01,WSW,252,4.0,16.0,31,0.00,,---,0.00,VWS V14.01,2013-03-20 14:29:00,
2013-03-20 10:30:00,44.1,15.4,30.00,West,274,9.0,16.0,31,0.00,,---,0.00,VWS V14.01,2013-03-20 14:30:00,
2013-03-20 10:34:00,44.5,13.4,30.00,WNW,287,12.0,16.0,28,0.00,,---,0.00,VWS V14.01,2013-03-20 14:34:00,
2013-03-20 10:39:00,44.2,13.2,30.00,NNW,339,9.0,17.0,28,0.00,,---,0.00,VWS V14.01,2013-03-20 14:39:00,
2013-03-20 10:40:00,44.3,13.3,30.00,NNW,337,8.0,17.0,28,0.00,,---,0.00,VWS V14.01,2013-03-20 14:40:00,
2013-03-20 10:44:00,44.4,12.5,30.00,NNW,336,7.0,13.0,27,0.00,,---,0.00,VWS V14.01,2013-03-20 14:44:00,
2013-03-20 10:49:00,44.5,12.6,30.00,WNW,302,7.0,15.0,27,0.00,,---,0.00,VWS V14.01,2013-03-20 14:49:00,
2013-03-20 10:50:00,44.5,12.6,30.00,WNW,292,6.0,15.0,27,0.00,,---,0.00,VWS V14.01,2013-03-20 14:50:00,
2013-03-20 10:54:00,45.0,14.7,30.00,NNW,342,9.0,13.0,29,0.00,,---,0.00,VWS V14.01,2013-03-20 14:54:00,
2013-03-20 10:59:00,45.2,14.1,30.00,West,275,10.0,17.0,28,0.00,,---,0.00,VWS V14.01,2013-03-20 14:59:00,
2013-03-20 11:00:00,45.2,14.1,30.00,NNW,342,9.0,17.0,28,0.00,,---,0.00,VWS V14.01,2013-03-20 15:00:00,
2013-03-20 11:04:00,45.2,13.2,30.00,WNW,293,8.0,15.0,27,0.00,,---,0.00,VWS V14.01,2013-03-20 15:04:00,
2013-03-20 11:09:00,45.7,15.3,30.00,WNW,290,11.0,15.0,29,0.00,,---,0.00,VWS V14.01,2013-03-20 15:09:00,
2013-03-20 11:10:00,45.7,15.3,30.00,NW,317,7.0,15.0,29,0.00,,---,0.00,VWS V14.01,2013-03-20 15:10:00,
2013-03-20 11:14:00,45.3,14.9,30.00,NNW,337,7.0,16.0,29,0.00,,---,0.00,VWS V14.01,2013-03-20 15:14:00,
2013-03-20 11:19:00,45.5,13.5,29.99,West,260,8.0,16.0,27,0.00,,---,0.00,VWS V14.01,2013-03-20 15:19:00,
2013-03-20 11:20:00,45.5,15.9,29.99,WNW,284,6.0,16.0,30,0.00,,---,0.00,VWS V14.01,2013-03-20 15:20:00,
2013-03-20 11:24:00,45.7,15.3,29.99,WNW,282,12.0,13.0,29,0.00,,---,0.00,VWS V14.01,2013-03-20 15:24:00,
2013-03-20 11:29:00,45.8,14.6,29.99,West,273,9.0,15.0,28,0.00,,---,0.00,VWS V14.01,2013-03-20 15:29:00,
2013-03-20 11:30:00,45.8,14.6,29.99,West,260,9.0,15.0,28,0.00,,---,0.00,VWS V14.01,2013-03-20 15:30:00,
2013-03-20 11:34:00,45.7,13.6,29.99,WNW,303,13.0,15.0,27,0.00,,---,0.00,VWS V14.01,2013-03-20 15:34:00,
2013-03-20 11:39:00,46.2,14.1,29.98,WNW,302,7.0,15.0,27,0.00,,---,0.00,VWS V14.01,2013-03-20 15:39:00,
2013-03-20 11:40:00,46.2,14.1,29.98,WNW,302,7.0,15.0,27,0.00,,---,0.00,VWS V14.01,2013-03-20 15:40:00,
2013-03-20 11:44:00,46.4,14.2,29.98,North,350,4.0,13.0,27,0.00,,---,0.00,VWS V14.01,2013-03-20 15:44:00,
2013-03-20 11:49:00,46.8,12.9,29.98,NW,305,8.0,13.0,25,0.00,,---,0.00,VWS V14.01,2013-03-20 15:49:00,
2013-03-20 11:50:00,46.8,12.9,29.98,NW,305,8.0,13.0,25,0.00,,---,0.00,VWS V14.01,2013-03-20 15:50:00,
2013-03-20 11:54:00,46.7,13.6,29.98,West,272,13.0,15.0,26,0.00,,---,0.00,VWS V14.01,2013-03-20 15:54:00,
2013-03-20 11:59:00,46.9,15.5,29.97,WNW,288,8.0,15.0,28,0.00,,---,0.00,VWS V14.01,2013-03-20 15:59:00,
2013-03-20 12:00:00,46.9,15.5,29.97,WNW,288,8.0,15.0,28,0.00,,---,0.00,VWS V14.01,2013-03-20 16:00:00,
2013-03-20 12:04:00,47.3,13.3,29.97,WNW,297,9.0,15.0,25,0.00,,---,0.00,VWS V14.01,2013-03-20 16:04:00,
2013-03-20 12:09:00,47.2,12.3,29.96,WSW,252,3.0,15.0,24,0.00,,---,0.00,VWS V14.01,2013-03-20 16:09:00,
2013-03-20 12:10:00,47.2,12.3,29.96,WSW,252,3.0,15.0,24,0.00,,---,0.00,VWS V14.01,2013-03-20 16:10:00,
2013-03-20 12:14:00,47.6,13.5,29.96,WNW,285,8.0,21.0,25,0.00,,---,0.00,VWS V14.01,2013-03-20 16:14:00,
2013-03-20 12:19:00,48.1,17.4,29.96,WSW,249,16.0,16.0,29,0.00,,---,0.00,VWS V14.01,2013-03-20 16:19:00,
2013-03-20 12:20:00,48.1,17.4,29.96,WSW,256,16.0,21.0,29,0.00,,---,0.00,VWS V14.01,2013-03-20 16:20:00,
2013-03-20 12:24:00,48.3,14.1,29.96,West,274,6.0,16.0,25,0.00,,---,0.00,VWS V14.01,2013-03-20 16:24:00,
2013-03-20 12:29:00,48.4,14.2,29.95,NNW,333,6.0,7.0,25,0.00,,---,0.00,VWS V14.01,2013-03-20 16:29:00,
2013-03-20 12:30:00,48.4,14.2,29.95,North,349,7.0,16.0,25,0.00,,---,0.00,VWS V14.01,2013-03-20 16:30:00,
2013-03-20 12:34:00,48.3,16.7,29.95,West,277,6.0,12.0,28,0.00,,---,0.00,VWS V14.01,2013-03-20 16:34:00,
2013-03-20 12:39:00,48.6,14.4,29.95,West,281,4.0,5.0,25,0.00,,---,0.00,VWS V14.01,2013-03-20 16:39:00,
2013-03-20 12:40:00,48.6,14.4,29.95,West,259,4.0,14.0,25,0.00,,---,0.00,VWS V14.01,2013-03-20 16:40:00,
2013-03-20 12:44:00,49.0,13.8,29.95,WSW,258,3.0,20.0,24,0.00,,---,0.00,VWS V14.01,2013-03-20 16:44:00,
2013-03-20 12:49:00,49.6,13.3,29.94,West,276,6.0,10.0,23,0.00,,---,0.00,VWS V14.01,2013-03-20 16:49:00,
2013-03-20 12:50:00,49.7,13.4,29.94,WNW,287,10.0,20.0,23,0.00,,---,0.00,VWS V14.01,2013-03-20 16:50:00,
2013-03-20 12:54:00,49.5,13.2,29.94,West,263,10.0,15.0,23,0.00,,---,0.00,VWS V14.01,2013-03-20 16:54:00,
2013-03-20 12:59:00,49.3,13.1,29.94,WNW,298,10.0,10.0,23,0.00,,---,0.00,VWS V14.01,2013-03-20 16:59:00,
2013-03-20 13:00:00,49.3,13.1,29.94,NW,305,5.0,16.0,23,0.00,,---,0.00,VWS V14.01,2013-03-20 17:00:00,
2013-03-20 13:05:00,49.3,13.1,29.94,West,277,7.0,19.0,23,0.00,,---,0.00,VWS V14.01,2013-03-20 17:05:00,
2013-03-20 13:10:00,49.2,15.8,29.93,WSW,245,6.0,7.0,26,0.00,,---,0.00,VWS V14.01,2013-03-20 17:10:00,
2013-03-20 13:15:00,49.4,13.2,29.93,West,268,7.0,14.0,23,0.00,,---,0.00,VWS V14.01,2013-03-20 17:15:00,
2013-03-20 13:20:00,49.5,12.2,29.93,West,272,7.0,12.0,22,0.00,,---,0.00,VWS V14.01,2013-03-20 17:20:00,
2013-03-20 13:25:00,49.7,16.2,29.92,West,273,4.0,12.0,26,0.00,,---,0.00,VWS V14.01,2013-03-20 17:25:00,
2013-03-20 13:30:00,50.2,16.6,29.92,WNW,282,16.0,19.0,26,0.00,,---,0.00,VWS V14.01,2013-03-20 17:30:00,
2013-03-20 13:35:00,49.7,15.3,29.92,WSW,239,11.0,21.0,25,0.00,,---,0.00,VWS V14.01,2013-03-20 17:35:00,
2013-03-20 13:40:00,50.0,16.5,29.91,WSW,249,13.0,16.0,26,0.00,,---,0.00,VWS V14.01,2013-03-20 17:40:00,
2013-03-20 13:45:00,49.8,14.5,29.91,West,268,7.0,19.0,24,0.00,,---,0.00,VWS V14.01,2013-03-20 17:45:00,
2013-03-20 13:50:00,49.8,15.4,29.91,SW,228,14.0,16.0,25,0.00,,---,0.00,VWS V14.01,2013-03-20 17:50:00,
2013-03-20 13:55:00,50.0,15.6,29.90,West,263,6.0,18.0,25,0.00,,---,0.00,VWS V14.01,2013-03-20 17:55:00,
2013-03-20 14:00:00,50.4,15.0,29.90,WSW,238,12.0,15.0,24,0.00,,---,0.00,VWS V14.01,2013-03-20 18:00:00,
2013-03-20 14:05:00,50.6,15.2,29.89,WSW,256,11.0,15.0,24,0.00,,---,0.00,VWS V14.01,2013-03-20 18:05:00,
2013-03-20 14:10:00,50.8,17.2,29.89,WNW,283,14.0,14.0,26,0.00,,---,0.00,VWS V14.01,2013-03-20 18:10:00,
2013-03-20 14:15:00,51.0,14.5,29.89,SSW,201,9.0,26.0,23,0.00,,---,0.00,VWS V14.01,2013-03-20 18:15:00,
2013-03-20 14:20:00,50.9,16.4,29.88,West,270,12.0,17.0,25,0.00,,---,0.00,VWS V14.01,2013-03-20 18:20:00,
2013-03-20 14:25:00,51.0,14.5,29.88,West,266,13.0,19.0,23,0.00,,---,0.00,VWS V14.01,2013-03-20 18:25:00,
2013-03-20 14:30:00,51.1,12.5,29.87,WSW,253,10.0,10.0,21,0.00,,---,0.00,VWS V14.01,2013-03-20 18:30:00,
2013-03-20 14:35:00,51.2,13.7,29.87,WSW,252,16.0,17.0,22,0.00,,---,0.00,VWS V14.01,2013-03-20 18:35:00,
2013-03-20 14:40:00,51.6,13.0,29.87,West,272,8.0,8.0,21,0.00,,---,0.00,VWS V14.01,2013-03-20 18:40:00,
2013-03-20 14:45:00,51.0,13.5,29.86,WNW,297,11.0,18.0,22,0.00,,---,0.00,VWS V14.01,2013-03-20 18:45:00,
2013-03-20 14:50:00,51.1,13.6,29.85,NW,318,15.0,15.0,22,0.00,,---,0.00,VWS V14.01,2013-03-20 18:50:00,
2013-03-20 14:55:00,51.4,14.9,29.85,West,259,12.0,20.0,23,0.00,,---,0.00,VWS V14.01,2013-03-20 18:55:00,
2013-03-20 15:00:00,51.9,13.2,29.85,WSW,253,13.0,17.0,21,0.00,,---,0.00,VWS V14.01,2013-03-20 19:00:00,
2013-03-20 15:05:00,51.6,14.0,29.84,West,273,7.0,17.0,22,0.00,,---,0.00,VWS V14.01,2013-03-20 19:05:00,
2013-03-20 15:10:00,51.8,13.1,29.84,WSW,249,11.0,23.0,21,0.00,,---,0.00,VWS V14.01,2013-03-20 19:10:00,
2013-03-20 15:15:00,51.7,14.1,29.84,SW,217,12.0,23.0,22,0.00,,---,0.00,VWS V14.01,2013-03-20 19:15:00,
2013-03-20 15:20:00,52.1,16.4,29.83,WNW,288,7.0,17.0,24,0.00,,---,0.00,VWS V14.01,2013-03-20 19:20:00,
2013-03-20 15:25:00,52.6,12.7,29.83,WSW,257,13.0,24.0,20,0.00,,---,0.00,VWS V14.01,2013-03-20 19:25:00,
2013-03-20 15:30:00,52.7,13.9,29.83,West,280,9.0,14.0,21,0.00,,---,0.00,VWS V14.01,2013-03-20 19:30:00,
2013-03-20 15:35:00,52.8,14.0,29.83,WNW,287,9.0,17.0,21,0.00,,---,0.00,VWS V14.01,2013-03-20 19:35:00,
2013-03-20 15:40:00,52.4,13.6,29.83,West,267,8.0,12.0,21,0.00,,---,0.00,VWS V14.01,2013-03-20 19:40:00,
2013-03-20 15:45:00,52.4,13.6,29.82,SSW,204,13.0,20.0,21,0.00,,---,0.00,VWS V14.01,2013-03-20 19:45:00,
2013-03-20 15:50:00,53.0,16.2,29.82,West,262,9.0,17.0,23,0.00,,---,0.00,VWS V14.01,2013-03-20 19:50:00,
2013-03-20 15:55:00,52.9,14.1,29.82,WNW,299,6.0,17.0,21,0.00,,---,0.00,VWS V14.01,2013-03-20 19:55:00,
2013-03-20 16:00:00,52.9,12.9,29.81,West,263,9.0,13.0,20,0.00,,---,0.00,VWS V14.01,2013-03-20 20:00:00,
2013-03-20 16:05:00,52.7,16.0,29.81,West,274,16.0,19.0,23,0.00,,---,0.00,VWS V14.01,2013-03-20 20:05:00,
2013-03-20 16:10:00,52.6,14.9,29.81,SW,221,13.0,14.0,22,0.00,,---,0.00,VWS V14.01,2013-03-20 20:10:00,
2013-03-20 16:15:00,51.9,12.1,29.81,West,262,9.0,17.0,20,0.00,,---,0.00,VWS V14.01,2013-03-20 20:15:00,
2013-03-20 16:20:00,51.7,13.0,29.81,WSW,248,9.0,11.0,21,0.00,,---,0.00,VWS V14.01,2013-03-20 20:20:00,
2013-03-20 16:25:00,52.3,14.6,29.80,West,266,11.0,14.0,22,0.00,,---,0.00,VWS V14.01,2013-03-20 20:25:00,
2013-03-20 16:30:00,52.5,13.7,29.80,West,262,12.0,16.0,21,0.00,,---,0.00,VWS V14.01,2013-03-20 20:30:00,
2013-03-20 16:35:00,52.8,11.7,29.80,WSW,242,11.0,24.0,19,0.00,,---,0.00,VWS V14.01,2013-03-20 20:35:00,
2013-03-20 16:40:00,52.8,14.0,29.80,West,262,8.0,15.0,21,0.00,,---,0.00,VWS V14.01,2013-03-20 20:40:00,
2013-03-20 16:45:00,53.0,13.0,29.80,WNW,302,12.0,20.0,20,0.00,,---,0.00,VWS V14.01,2013-03-20 20:45:00,
2013-03-20 16:50:00,52.2,11.2,29.80,SW,236,4.0,14.0,19,0.00,,---,0.00,VWS V14.01,2013-03-20 20:50:00,
2013-03-20 16:55:00,51.9,12.1,29.79,SSW,203,10.0,16.0,20,0.00,,---,0.00,VWS V14.01,2013-03-20 20:55:00,
2013-03-20 17:00:00,52.0,14.4,29.79,West,278,5.0,13.0,22,0.00,,---,0.00,VWS V14.01,2013-03-20 21:00:00,
2013-03-20 17:05:00,52.5,12.6,29.79,WSW,242,13.0,19.0,20,0.00,,---,0.00,VWS V14.01,2013-03-20 21:05:00,
2013-03-20 17:10:00,52.2,11.2,29.79,West,260,8.0,19.0,19,0.00,,---,0.00,VWS V14.01,2013-03-20 21:10:00,
2013-03-20 17:11:00,52.1,12.3,29.79,SW,228,7.0,11.0,20,0.00,,---,0.00,VWS V14.01,2013-03-20 21:11:00,
2013-03-20 17:16:00,51.8,12.0,29.78,WSW,252,7.0,13.0,20,0.00,,---,0.00,VWS V14.01,2013-03-20 21:16:00,
2013-03-20 17:20:00,52.0,12.2,29.78,NW,309,3.0,13.0,20,0.00,,---,0.00,VWS V14.01,2013-03-20 21:20:00,
2013-03-20 17:21:00,52.2,13.5,29.78,NW,305,9.0,18.0,21,0.00,,---,0.00,VWS V14.01,2013-03-20 21:21:00,
2013-03-20 17:26:00,52.9,14.1,29.78,WNW,300,12.0,18.0,21,0.00,,---,0.00,VWS V14.01,2013-03-20 21:26:00,
2013-03-20 17:30:00,53.3,13.3,29.78,West,269,14.0,18.0,20,0.00,,---,0.00,VWS V14.01,2013-03-20 21:30:00,
2013-03-20 17:31:00,53.4,13.4,29.78,SSW,212,10.0,15.0,20,0.00,,---,0.00,VWS V14.01,2013-03-20 21:31:00,
2013-03-20 17:36:00,53.9,12.6,29.77,WSW,258,13.0,20.0,19,0.00,,---,0.00,VWS V14.01,2013-03-20 21:36:00,
2013-03-20 17:40:00,53.6,12.4,29.77,WSW,250,7.0,20.0,19,0.00,,---,0.00,VWS V14.01,2013-03-20 21:40:00,
2013-03-20 17:41:00,53.4,9.7,29.77,WSW,247,10.0,13.0,17,0.00,,---,0.00,VWS V14.01,2013-03-20 21:41:00,
2013-03-20 17:46:00,52.9,11.8,29.77,WSW,248,8.0,16.0,19,0.00,,---,0.00,VWS V14.01,2013-03-20 21:46:00,
2013-03-20 17:50:00,52.5,11.4,29.77,SW,231,8.0,18.0,19,0.00,,---,0.00,VWS V14.01,2013-03-20 21:50:00,
2013-03-20 17:51:00,52.4,11.4,29.77,WSW,239,13.0,13.0,19,0.00,,---,0.00,VWS V14.01,2013-03-20 21:51:00,
2013-03-20 17:56:00,51.8,13.1,29.76,West,270,6.0,14.0,21,0.00,,---,0.00,VWS V14.01,2013-03-20 21:56:00,
2013-03-20 18:00:00,51.5,10.6,29.76,West,260,6.0,14.0,19,0.00,,---,0.00,VWS V14.01,2013-03-20 22:00:00,
2013-03-20 18:01:00,51.5,10.6,29.76,SSW,208,4.0,8.0,19,0.00,,---,0.00,VWS V14.01,2013-03-20 22:01:00,
2013-03-20 18:06:00,51.5,13.9,29.76,SW,226,6.0,9.0,22,0.00,,---,0.00,VWS V14.01,2013-03-20 22:06:00,
2013-03-20 18:10:00,51.5,11.8,29.76,WNW,285,6.0,9.0,20,0.00,,---,0.00,VWS V14.01,2013-03-20 22:10:00,
2013-03-20 18:11:00,51.6,11.9,29.76,West,260,5.0,8.0,20,0.00,,---,0.00,VWS V14.01,2013-03-20 22:11:00,
2013-03-20 18:16:00,51.9,12.1,29.76,WSW,238,4.0,8.0,20,0.00,,---,0.00,VWS V14.01,2013-03-20 22:16:00,
2013-03-20 18:20:00,52.1,12.3,29.76,WNW,295,8.0,13.0,20,0.00,,---,0.00,VWS V14.01,2013-03-20 22:20:00,
2013-03-20 18:21:00,52.2,12.4,29.76,WNW,288,7.0,14.0,20,0.00,,---,0.00,VWS V14.01,2013-03-20 22:21:00,
2013-03-20 18:26:00,51.7,10.8,29.76,West,271,4.0,16.0,19,0.00,,---,0.00,VWS V14.01,2013-03-20 22:26:00,
2013-03-20 18:30:00,51.5,10.6,29.76,WSW,256,5.0,16.0,19,0.00,,---,0.00,VWS V14.01,2013-03-20 22:30:00,
2013-03-20 18:31:00,51.4,10.5,29.76,WSW,252,11.0,12.0,19,0.00,,---,0.00,VWS V14.01,2013-03-20 22:31:00,
2013-03-20 18:37:00,51.1,11.4,29.76,WNW,290,6.0,12.0,20,0.00,,---,0.00,VWS V14.01,2013-03-20 22:37:00,
2013-03-20 18:40:00,51.0,11.4,29.76,West,277,7.0,12.0,20,0.00,,---,0.00,VWS V14.01,2013-03-20 22:40:00,
2013-03-20 18:42:00,50.9,10.1,29.76,SW,233,4.0,8.0,19,0.00,,---,0.00,VWS V14.01,2013-03-20 22:42:00,
2013-03-20 18:47:00,50.5,10.9,29.76,WNW,283,4.0,10.0,20,0.00,,---,0.00,VWS V14.01,2013-03-20 22:47:00,
2013-03-20 18:50:00,50.5,12.0,29.76,West,281,2.0,10.0,21,0.00,,---,0.00,VWS V14.01,2013-03-20 22:50:00,
2013-03-20 18:52:00,50.3,11.9,29.76,WNW,288,3.0,6.0,21,0.00,,---,0.00,VWS V14.01,2013-03-20 22:52:00,
2013-03-20 18:57:00,50.2,11.8,29.76,WSW,256,4.0,6.0,21,0.00,,---,0.00,VWS V14.01,2013-03-20 22:57:00,
2013-03-20 19:00:00,50.2,11.8,29.76,West,270,3.0,6.0,21,0.00,,---,0.00,VWS V14.01,2013-03-20 23:00:00,
2013-03-20 19:02:00,50.3,11.9,29.76,North,8,0.0,3.0,21,0.00,,---,0.00,VWS V14.01,2013-03-20 23:02:00,
2013-03-20 19:07:00,50.6,11.0,29.76,WNW,291,7.0,12.0,20,0.00,,---,0.00,VWS V14.01,2013-03-20 23:07:00,
2013-03-20 19:10:00,50.7,11.1,29.76,West,280,7.0,12.0,20,0.00,,---,0.00,VWS V14.01,2013-03-20 23:10:00,
2013-03-20 19:12:00,50.6,12.1,29.76,WNW,295,5.0,7.0,21,0.00,,---,0.00,VWS V14.01,2013-03-20 23:12:00,
2013-03-20 19:17:00,50.3,12.9,29.76,WSW,253,5.0,12.0,22,0.00,,---,0.00,VWS V14.01,2013-03-20 23:17:00,
2013-03-20 19:20:00,50.1,11.7,29.76,West,274,3.0,12.0,21,0.00,,---,0.00,VWS V14.01,2013-03-20 23:20:00,
2013-03-20 19:22:00,50.1,10.6,29.76,SW,224,7.0,8.0,20,0.00,,---,0.00,VWS V14.01,2013-03-20 23:22:00,
2013-03-20 19:27:00,50.1,9.5,29.76,WSW,257,6.0,10.0,19,0.00,,---,0.00,VWS V14.01,2013-03-20 23:27:00,
2013-03-20 19:30:00,50.1,9.5,29.76,SW,218,11.0,11.0,19,0.00,,---,0.00,VWS V14.01,2013-03-20 23:30:00,
2013-03-20 19:32:00,50.3,10.8,29.76,West,271,6.0,17.0,20,0.00,,---,0.00,VWS V14.01,2013-03-20 23:32:00,
2013-03-20 19:37:00,50.0,10.5,29.76,West,281,5.0,17.0,20,0.00,,---,0.00,VWS V14.01,2013-03-20 23:37:00,
2013-03-20 19:40:00,49.9,11.5,29.76,WSW,256,3.0,17.0,21,0.00,,---,0.00,VWS V14.01,2013-03-20 23:40:00,
2013-03-20 19:42:00,49.7,11.4,29.76,West,281,3.0,5.0,21,0.00,,---,0.00,VWS V14.01,2013-03-20 23:42:00,
2013-03-20 19:47:00,49.3,11.0,29.76,West,263,4.0,6.0,21,0.00,,---,0.00,VWS V14.01,2013-03-20 23:47:00,
2013-03-20 19:50:00,49.2,12.0,29.77,WNW,290,2.0,6.0,22,0.00,,---,0.00,VWS V14.01,2013-03-20 23:50:00,
2013-03-20 19:52:00,49.0,10.8,29.77,WNW,301,2.0,4.0,21,0.00,,---,0.00,VWS V14.01,2013-03-20 23:52:00,
2013-03-20 19:57:00,48.7,10.5,29.77,West,281,2.0,4.0,21,0.00,,---,0.00,VWS V14.01,2013-03-20 23:57:00,
2013-03-20 20:00:00,48.5,11.4,29.77,West,278,3.0,4.0,22,0.00,,---,0.00,VWS V14.01,2013-03-21 00:00:00,
2013-03-20 20:02:00,48.4,10.3,29.76,WSW,254,2.0,3.0,21,0.00,,---,0.00,VWS V14.01,2013-03-21 00:02:00,
2013-03-20 20:07:00,48.1,11.1,29.76,West,278,1.0,4.0,22,0.00,,---,0.00,VWS V14.01,2013-03-21 00:07:00,
2013-03-20 20:10:00,47.9,10.9,29.77,West,281,0.0,4.0,22,0.00,,---,0.00,VWS V14.01,2013-03-21 00:10:00,
2013-03-20 20:12:00,47.7,11.7,29.76,West,271,0.0,2.0,23,0.00,,---,0.00,VWS V14.01,2013-03-21 00:12:00,
2013-03-20 20:17:00,47.4,10.5,29.76,West,276,0.0,4.0,22,0.00,,---,0.00,VWS V14.01,2013-03-21 00:17:00,
2013-03-20 20:20:00,47.3,11.4,29.76,West,278,0.0,4.0,23,0.00,,---,0.00,VWS V14.01,2013-03-21 00:20:00,
2013-03-20 20:22:00,47.1,12.2,29.76,West,275,0.0,2.0,24,0.00,,---,0.00,VWS V14.01,2013-03-21 00:22:00,
2013-03-20 20:27:00,46.6,11.8,29.77,West,269,0.0,2.0,24,0.00,,---,0.00,VWS V14.01,2013-03-21 00:27:00,
2013-03-20 20:30:00,46.3,11.5,29.76,West,269,0.0,2.0,24,0.00,,---,0.00,VWS V14.01,2013-03-21 00:30:00,
2013-03-20 20:32:00,46.0,10.3,29.76,SW,215,0.0,2.0,23,0.00,,---,0.00,VWS V14.01,2013-03-21 00:32:00,
2013-03-20 20:37:00,45.6,11.8,29.77,SW,225,0.0,2.0,25,0.00,,---,0.00,VWS V14.01,2013-03-21 00:37:00,
2013-03-20 20:40:00,45.3,11.6,29.76,SW,225,0.0,2.0,25,0.00,,---,0.00,VWS V14.01,2013-03-21 00:40:00,
2013-03-20 20:42:00,44.8,12.0,29.76,SW,224,0.0,0.0,26,0.00,,---,0.00,VWS V14.01,2013-03-21 00:42:00,
2013-03-20 20:47:00,43.8,14.4,29.76,SW,224,0.0,0.0,30,0.00,,---,0.00,VWS V14.01,2013-03-21 00:47:00,
2013-03-20 20:50:00,43.5,12.6,29.76,ENE,72,1.0,1.0,28,0.00,,---,0.00,VWS V14.01,2013-03-21 00:50:00,
2013-03-20 20:52:00,43.4,14.8,29.76,ENE,72,0.0,1.0,31,0.00,,---,0.00,VWS V14.01,2013-03-21 00:52:00,
2013-03-20 20:57:00,42.6,14.8,29.76,ENE,72,0.0,1.0,32,0.00,,---,0.00,VWS V14.01,2013-03-21 00:57:00,
2013-03-20 21:00:00,42.3,15.3,29.76,ENE,72,0.0,1.0,33,0.00,,---,0.00,VWS V14.01,2013-03-21 01:00:00,
2013-03-20 21:02:00,41.8,13.4,29.76,ENE,72,0.0,0.0,31,0.00,,---,0.00,VWS V14.01,2013-03-21 01:02:00,
2013-03-20 21:07:00,41.4,15.1,29.76,ENE,72,0.0,0.0,34,0.00,,---,0.00,VWS V14.01,2013-03-21 01:07:00,
2013-03-20 21:10:00,41.1,15.6,29.76,ENE,72,0.0,0.0,35,0.00,,---,0.00,VWS V14.01,2013-03-21 01:10:00,
2013-03-20 21:12:00,40.6,15.8,29.76,ENE,72,0.0,0.0,36,0.00,,---,0.00,VWS V14.01,2013-03-21 01:12:00,
2013-03-20 21:17:00,39.6,14.9,29.76,ENE,72,0.0,0.0,36,0.00,,---,0.00,VWS V14.01,2013-03-21 01:17:00,
2013-03-20 21:20:00,39.3,15.8,29.76,ENE,72,0.0,0.0,38,0.00,,---,0.00,VWS V14.01,2013-03-21 01:20:00,
2013-03-20 21:22:00,38.8,15.4,29.76,ENE,72,0.0,0.0,38,0.00,,---,0.00,VWS V14.01,2013-03-21 01:22:00,
2013-03-20 21:28:00,37.7,16.7,29.76,ENE,72,0.0,0.0,42,0.00,,---,0.00,VWS V14.01,2013-03-21 01:28:00,
2013-03-20 21:30:00,37.4,15.9,29.76,ENE,72,0.0,0.0,41,0.00,,---,0.00,VWS V14.01,2013-03-21 01:30:00,
2013-03-20 21:33:00,37.1,15.0,29.76,ENE,72,0.0,0.0,40,0.00,,---,0.00,VWS V14.01,2013-03-21 01:33:00,
2013-03-20 21:38:00,37.1,15.0,29.76,ENE,72,0.0,0.0,40,0.00,,---,0.00,VWS V14.01,2013-03-21 01:38:00,
2013-03-20 21:40:00,37.0,14.9,29.76,ENE,72,0.0,0.0,40,0.00,,---,0.00,VWS V14.01,2013-03-21 01:40:00,
2013-03-20 21:43:00,36.6,15.7,29.76,ENE,72,0.0,0.0,42,0.00,,---,0.00,VWS V14.01,2013-03-21 01:43:00,
2013-03-20 21:48:00,36.2,17.4,29.76,ENE,72,0.0,0.0,46,0.00,,---,0.00,VWS V14.01,2013-03-21 01:48:00,
2013-03-20 21:50:00,36.0,16.2,29.76,ENE,72,0.0,0.0,44,0.00,,---,0.00,VWS V14.01,2013-03-21 01:50:00,
2013-03-20 21:53:00,35.6,17.4,29.76,ENE,72,0.0,0.0,47,0.00,,---,0.00,VWS V14.01,2013-03-21 01:53:00,
2013-03-20 21:58:00,35.1,18.4,29.76,ENE,72,0.0,0.0,50,0.00,,---,0.00,VWS V14.01,2013-03-21 01:58:00,
2013-03-20 22:00:00,35.0,18.2,29.76,ENE,72,0.0,0.0,50,0.00,,---,0.00,VWS V14.01,2013-03-21 02:00:00,
2013-03-20 22:03:00,34.9,16.2,29.76,ENE,72,0.0,0.0,46,0.00,,---,0.00,VWS V14.01,2013-03-21 02:03:00,
2013-03-20 22:08:00,35.0,16.3,29.76,ENE,72,0.0,0.0,46,0.00,,---,0.00,VWS V14.01,2013-03-21 02:08:00,
2013-03-20 22:10:00,35.1,15.9,29.76,ENE,72,0.0,0.0,45,0.00,,---,0.00,VWS V14.01,2013-03-21 02:10:00,
2013-03-20 22:13:00,34.9,16.7,29.76,ENE,72,0.0,0.0,47,0.00,,---,0.00,VWS V14.01,2013-03-21 02:13:00,
2013-03-20 22:18:00,34.5,18.2,29.76,ENE,72,0.0,0.0,51,0.00,,---,0.00,VWS V14.01,2013-03-21 02:18:00,
2013-03-20 22:20:00,34.5,18.7,29.76,ENE,72,0.0,0.0,52,0.00,,---,0.00,VWS V14.01,2013-03-21 02:20:00,
2013-03-20 22:23:00,34.2,18.9,29.76,ENE,72,0.0,0.0,53,0.00,,---,0.00,VWS V14.01,2013-03-21 02:23:00,
2013-03-20 22:28:00,33.8,15.7,29.76,ENE,72,0.0,0.0,47,0.00,,---,0.00,VWS V14.01,2013-03-21 02:28:00,
2013-03-20 22:30:00,33.8,16.2,29.76,ENE,72,0.0,0.0,48,0.00,,---,0.00,VWS V14.01,2013-03-21 02:30:00,
2013-03-20 22:33:00,33.8,17.1,29.76,ENE,72,0.0,0.0,50,0.00,,---,0.00,VWS V14.01,2013-03-21 02:33:00,
2013-03-20 22:38:00,33.9,17.2,29.76,ENE,72,0.0,0.0,50,0.00,,---,0.00,VWS V14.01,2013-03-21 02:38:00,
2013-03-20 22:40:00,34.1,16.5,29.76,ENE,72,0.0,1.0,48,0.00,,---,0.00,VWS V14.01,2013-03-21 02:40:00,
2013-03-20 22:43:00,34.5,20.0,29.76,ENE,72,0.0,0.0,55,0.00,,---,0.00,VWS V14.01,2013-03-21 02:43:00,
2013-03-20 22:49:00,34.7,18.9,29.76,ENE,72,0.0,0.0,52,0.00,,---,0.00,VWS V14.01,2013-03-21 02:49:00,
2013-03-20 22:50:00,34.7,20.2,29.76,ENE,72,0.0,0.0,55,0.00,,---,0.00,VWS V14.01,2013-03-21 02:50:00,
2013-03-20 22:54:00,34.6,20.1,29.76,ENE,72,0.0,0.0,55,0.00,,---,0.00,VWS V14.01,2013-03-21 02:54:00,
2013-03-20 22:59:00,34.5,20.4,29.76,ENE,72,0.0,0.0,56,0.00,,---,0.00,VWS V14.01,2013-03-21 02:59:00,
2013-03-20 23:00:00,34.5,20.9,29.76,ENE,72,0.0,0.0,57,0.00,,---,0.00,VWS V14.01,2013-03-21 03:00:00,
2013-03-20 23:04:00,34.5,20.4,29.76,NNW,333,3.0,3.0,56,0.00,,---,0.00,VWS V14.01,2013-03-21 03:04:00,
2013-03-20 23:09:00,35.8,18.0,29.76,NE,35,1.0,4.0,48,0.00,,---,0.00,VWS V14.01,2013-03-21 03:09:00,
2013-03-20 23:10:00,35.9,17.6,29.76,NE,36,1.0,4.0,47,0.00,,---,0.00,VWS V14.01,2013-03-21 03:10:00,
2013-03-20 23:14:00,36.2,19.4,29.76,NE,34,0.0,2.0,50,0.00,,---,0.00,VWS V14.01,2013-03-21 03:14:00,
2013-03-20 23:19:00,36.2,17.9,29.76,NNE,20,0.0,2.0,47,0.00,,---,0.00,VWS V14.01,2013-03-21 03:19:00,
2013-03-20 23:20:00,36.2,17.9,29.76,NNE,20,1.0,2.0,47,0.00,,---,0.00,VWS V14.01,2013-03-21 03:20:00,
2013-03-20 23:24:00,36.1,17.3,29.76,WNW,297,0.0,1.0,46,0.00,,---,0.00,VWS V14.01,2013-03-21 03:24:00,
2013-03-20 23:29:00,36.3,17.5,29.76,North,356,0.0,1.0,46,0.00,,---,0.00,VWS V14.01,2013-03-21 03:29:00,
2013-03-20 23:30:00,36.3,17.5,29.76,North,356,0.0,1.0,46,0.00,,---,0.00,VWS V14.01,2013-03-21 03:30:00,
2013-03-20 23:34:00,36.2,16.4,29.76,NNE,32,0.0,2.0,44,0.00,,---,0.00,VWS V14.01,2013-03-21 03:34:00,
2013-03-20 23:39:00,36.4,16.6,29.76,NNW,332,0.0,2.0,44,0.00,,---,0.00,VWS V14.01,2013-03-21 03:39:00,
2013-03-20 23:40:00,36.5,17.2,29.76,NNW,332,0.0,2.0,45,0.00,,---,0.00,VWS V14.01,2013-03-21 03:40:00,
2013-03-20 23:44:00,36.8,17.0,29.76,NNW,335,0.0,1.0,44,0.00,,---,0.00,VWS V14.01,2013-03-21 03:44:00,
2013-03-20 23:49:00,36.5,17.7,29.76,NNE,15,0.0,1.0,46,0.00,,---,0.00,VWS V14.01,2013-03-21 03:49:00,
2013-03-20 23:50:00,36.4,18.6,29.76,NNE,15,0.0,1.0,48,0.00,,---,0.00,VWS V14.01,2013-03-21 03:50:00,
2013-03-20 23:54:00,36.0,17.2,29.76,North,360,1.0,1.0,46,0.00,,---,0.00,VWS V14.01,2013-03-21 03:54:00,
2013-03-20 23:59:00,36.0,18.2,29.76,North,354,0.0,1.0,48,0.00,,---,0.00,VWS V14.01,2013-03-21 03:59:00,